Content
SEND FEEDBACK

Daily
Averages
Monthly
Summary
United States of America

BOSTON, MASSACHUSETTS


Home > North America > United States > Massachusetts
Elevation: 4 feet     Latitude: 42 22N     Longitude: 071 02W

WEATHER
 
SELECT A DAY
Number of Records: 205,387;   Date Range: 1/1/95 - 10/22/14
 
SHARE

PRINT THIS DATA

[ ← Previous Day ]
WEATHER ALMANAC - MAY 17, 2013
[ Next Day → ]
[ °C ]   °F
Weather ElementAverageHighLow
Temperature59.2 °F69.1 °F (3:54 pm)55 °F (5:54 am)
Dewpoint41 °F46.9 °F (4:54 pm)37 °F (7:54 am)
Humidity51.9 %69 % (9:54 pm)32 % (3:54 pm)
Barometer30.04 in30.22 in (10:54 pm)29.85 in (1:54 am)
Wind Speed11.8 mph15 mph (6:54 am)
Wind Gust24.2 mph (7:54 am)
Weather ElementAverage
Visibility10 mi
Wind DirectionWSW (261.7 °)

Weather ElementTotal
Precipitation---
Heating Degree Days3 (Base 65)
Growing Degree Days12.1 (Base 50)
Averaged from 24 records on May 17, 2013
WEATHER CONDITIONS BREAKOUT
WIND DIRECTION BREAKOUT
WEATHER BY HOUR - MAY 17, 2013
[ °C ]   °F
Local TimeTemperatureDewpointHumidityBarometerVisibilityWind DirectionWind SpeedGust SpeedPrecipitationEventsConditions
1:54 AM60.1 °F41.0 °F49 %29.85 in10.0 miNNW (340°)8.1 mphClear
2:54 AM57.9 °F39.0 °F49 %29.86 in10.0 miNNW (340°)9.2 mphClear
3:54 AM57.0 °F39.9 °F53 %29.87 in10.0 miNNW (330°)11.5 mphClear
4:54 AM55.9 °F39.9 °F55 %29.90 in10.0 miNW (310°)12.7 mphClear
5:54 AM55.0 °F39.0 °F55 %29.92 in10.0 miNW (320°)11.5 mph20.7 mphClear
6:54 AM55.0 °F39.0 °F55 %29.96 in10.0 miNW (310°)15.0 mph21.9 mphPartly Cloudy
7:54 AM55.9 °F37.0 °F49 %29.98 in10.0 miNNW (330°)15.0 mph24.2 mphScattered Clouds
8:54 AM57.9 °F37.9 °F47 %30.00 in10.0 miNNW (340°)12.7 mph20.7 mphScattered Clouds
9:54 AM61.0 °F37.9 °F42 %29.99 in10.0 miNorth (350°)13.8 mphScattered Clouds
10:54 AM63.0 °F39.0 °F41 %30.02 in10.0 miNW (320°)11.5 mph17.3 mphScattered Clouds
11:54 AM63.0 °F39.0 °F41 %30.02 in10.0 miNNW (340°)12.7 mph19.6 mphScattered Clouds
12:54 PM63.0 °F39.0 °F41 %30.03 in10.0 miNorth (360°)15.0 mph24.2 mphMostly Cloudy
1:54 PM66.0 °F39.0 °F37 %30.04 in10.0 miNW (310°)12.7 mph20.7 mphMostly Cloudy
2:54 PM66.9 °F39.0 °F36 %30.06 in10.0 miNorth (350°)13.8 mph19.6 mphMostly Cloudy
3:54 PM69.1 °F37.9 °F32 %30.05 in10.0 miNorth (360°)15.0 mph23.0 mphScattered Clouds
4:26 PM60.8 °F44.6 °F55 %30.07 in10.0 miESE (120°)12.7 mphClear
4:54 PM60.1 °F46.9 °F62 %30.08 in10.0 miESE (120°)13.8 mphPartly Cloudy
5:54 PM60.1 °F45.0 °F57 %30.10 in10.0 miESE (110°)10.4 mphScattered Clouds
6:54 PM57.0 °F45.0 °F64 %30.12 in10.0 miESE (110°)12.7 mphScattered Clouds
7:54 PM55.9 °F43.0 °F62 %30.15 in10.0 miEast (90°)10.4 mphScattered Clouds
8:54 PM55.9 °F44.1 °F64 %30.18 in10.0 miESE (120°)10.4 mphMostly Cloudy
9:54 PM55.0 °F45.0 °F69 %30.20 in10.0 miSouth (180°)6.9 mphScattered Clouds
10:54 PM55.0 °F44.1 °F67 %30.22 in10.0 miSSW (200°)8.1 mphClear
11:54 PM55.0 °F43.0 °F64 %30.22 in10.0 miSW (220°)8.1 mphClear
Hourly data recorded from KBOS, located miles away from Boston, Massachusetts







STORIES FROM OUR PARTNERS